This demonstration page uses our WeatherBlox Daily Observations layout. Learn more.

Left ArrowRight Arrow

Hourly Observations for October 26, 2022

Temp ( °F °C ) Dew Point ( °F °C ) Humidity (%) Winds ( mph kmh ) Pressure ( in mb ) Visibility ( mi km ) Precip ( " mm )
12:53 am 00:53 Clear 50 10 45 7.2 83 83 Calm 30.02 1017 10 16 0.00 0.00
1:53 am 01:53 Clear 49 9.4 45 7.2 86 86 Calm 30.02 1017 10 16 0.00 0.00
2:53 am 02:53 Clear 49 9.4 45 7.2 86 86 Calm 30.03 1017 10 16 0.00 0.00
3:53 am 03:53 Clear 48 8.9 45 7.2 89 89 Calm 30.03 1017 10 16 0.00 0.00
4:53 am 04:53 Clear 48 8.9 45 7.2 89 89 Calm 30.03 1017 10 16 0.00 0.00
5:53 am 05:53 Clear 47 8.3 45 7.2 93 93 Calm 30.04 1017 10 16 0.00 0.00
6:53 am 06:53 Clear 52 11 45 7.2 77 77 Calm 30.08 1019 10 16 0.00 0.00
7:53 am 07:53 Sunny 48 8.9 45 7.2 89 89 Calm 30.07 1018 10 16 0.00 0.00
8:53 am 08:53 Sunny 55 12.8 48 8.9 77 77 Calm 30.10 1019 10 16 0.00 0.00
9:53 am 09:53 Sunny 60 15.6 44 6.7 55 55 E 3 6 30.13 1020 10 16 0.00 0.00
10:53 am 10:53 Sunny 62 16.7 42 5.6 48 48 E 6 9 30.13 1020 10 16 0.00 0.00
11:53 am 11:53 Sunny 65 18.3 42 5.6 43 43 VRB 5 7 30.12 1020 10 16 0.00 0.00
12:53 pm 12:53 Sunny 67 19.4 40 4.4 37 37 Calm 30.10 1019 10 16 0.00 0.00
1:53 pm 13:53 Sunny 69 20.6 41 5 36 36 VRB 6 9 30.06 1018 10 16 0.00 0.00
2:53 pm 14:53 Sunny 71 21.7 41 5 34 34 E 7 11 30.02 1017 10 16 0.00 0.00
3:53 pm 15:53 Sunny 72 22.2 38 3.3 29 29 VRB 3 6 29.99 1016 10 16 0.00 0.00
4:53 pm 16:53 Sunny 72 22.2 39 3.9 30 30 VRB 6 9 29.98 1015 10 16 0.00 0.00
5:53 pm 17:53 Sunny 71 21.7 39 3.9 31 31 SE 9 15 29.98 1015 10 16 0.00 0.00
6:53 pm 18:53 Clear 68 20 40 4.4 36 36 SSE 6 9 29.98 1015 10 16 0.00 0.00
7:53 pm 19:53 Clear 64 17.8 42 5.6 45 45 E 6 9 29.99 1016 10 16 0.00 0.00
8:53 pm 20:53 Clear N/A N/A N/A E 6 9 30.04 1017 10 16 0.00 0.00
9:53 pm 21:53 Clear 59 15 42 5.6 53 53 E 6 9 30.00 1016 10 16 0.00 0.00
10:53 pm 22:53 Clear 60 15.6 40 4.4 47 47 E 6 9 30.00 1016 10 16 0.00 0.00
11:53 pm 23:53 Clear 58 14.4 41 5 53 53 ESE 8 13 29.99 1016 10 16 0.00 0.00

Powered by Vaisala Xweather